TimePST,TemperatureF,Dew PointF,Humidity,Sea Level PressureIn,VisibilityMPH,Wind Direction,Wind SpeedMPH,Gust SpeedMPH,PrecipitationIn,Events,Conditions,WindDirDegrees,DateUTC
12:15 AM,21.2,10.4,63,30.11,10.0,Calm,Calm,-,N/A,,Clear,0,2012-12-08 08:15:00
12:35 AM,21.2,8.6,58,30.11,10.0,Calm,Calm,-,N/A,,Clear,0,2012-12-08 08:35:00
12:55 AM,21.2,8.6,58,30.11,10.0,Calm,Calm,-,N/A,,Clear,0,2012-12-08 08:55:00
1:15 AM,21.2,8.6,58,30.11,10.0,Calm,Calm,-,N/A,,Clear,0,2012-12-08 09:15:00
1:35 AM,21.2,8.6,58,30.10,10.0,Calm,Calm,-,N/A,,Clear,0,2012-12-08 09:35:00
1:55 AM,19.4,6.8,58,30.10,10.0,Calm,Calm,-,N/A,,Clear,0,2012-12-08 09:55:00
2:15 AM,19.4,6.8,58,30.09,10.0,Calm,Calm,-,N/A,,Clear,0,2012-12-08 10:15:00
2:35 AM,19.4,6.8,58,30.09,10.0,Calm,Calm,-,N/A,,Clear,0,2012-12-08 10:35:00
2:55 AM,19.4,6.8,58,30.08,10.0,Calm,Calm,-,N/A,,Clear,0,2012-12-08 10:55:00
3:15 AM,19.4,6.8,58,30.08,10.0,Calm,Calm,-,N/A,,Clear,0,2012-12-08 11:15:00
3:35 AM,19.4,5.0,54,30.08,10.0,Calm,Calm,-,N/A,,Clear,0,2012-12-08 11:35:00
3:55 AM,17.6,5.0,58,30.08,10.0,Calm,Calm,-,N/A,,Clear,0,2012-12-08 11:55:00
4:15 AM,17.6,5.0,58,30.08,10.0,Calm,Calm,-,N/A,,Clear,0,2012-12-08 12:15:00
4:35 AM,17.6,5.0,58,30.08,10.0,Calm,Calm,-,N/A,,Clear,0,2012-12-08 12:35:00
4:55 AM,17.6,6.8,63,30.08,10.0,Calm,Calm,-,N/A,,Clear,0,2012-12-08 12:55:00
5:15 AM,17.6,6.8,63,30.08,10.0,Calm,Calm,-,N/A,,Clear,0,2012-12-08 13:15:00
5:35 AM,17.6,6.8,63,30.08,10.0,Calm,Calm,-,N/A,,Clear,0,2012-12-08 13:35:00
5:55 AM,17.6,6.8,63,30.08,10.0,Calm,Calm,-,N/A,,Clear,0,2012-12-08 13:55:00
6:15 AM,17.6,6.8,63,30.08,10.0,Calm,Calm,-,N/A,,Clear,0,2012-12-08 14:15:00
6:35 AM,17.6,5.0,58,30.08,10.0,Calm,Calm,-,N/A,,Clear,0,2012-12-08 14:35:00
6:55 AM,17.6,5.0,58,30.08,10.0,Calm,Calm,-,N/A,,Clear,0,2012-12-08 14:55:00
7:15 AM,17.6,6.8,63,30.08,10.0,Calm,Calm,-,N/A,,Clear,0,2012-12-08 15:15:00
7:35 AM,19.4,5.0,54,30.09,10.0,Calm,Calm,-,N/A,,Clear,0,2012-12-08 15:35:00
7:55 AM,23.0,8.6,54,30.09,10.0,Calm,Calm,-,N/A,,Clear,0,2012-12-08 15:55:00
8:15 AM,26.6,10.4,51,30.09,10.0,Calm,Calm,-,N/A,,Clear,0,2012-12-08 16:15:00
8:35 AM,28.4,12.2,51,30.10,10.0,Calm,Calm,-,N/A,,Clear,0,2012-12-08 16:35:00
8:55 AM,32.0,14.0,48,30.09,10.0,Calm,Calm,-,N/A,,Clear,0,2012-12-08 16:55:00
9:15 AM,37.4,12.2,36,30.09,10.0,Calm,Calm,-,N/A,,Clear,0,2012-12-08 17:15:00
9:35 AM,42.8,5.0,21,30.09,10.0,Calm,Calm,-,N/A,,Clear,0,2012-12-08 17:35:00
9:55 AM,44.6,-0.4,15,30.09,10.0,Calm,Calm,-,N/A,,Clear,0,2012-12-08 17:55:00
10:15 AM,50.0,-4.0,11,30.09,10.0,Calm,Calm,-,N/A,,Clear,0,2012-12-08 18:15:00
10:35 AM,50.0,-0.4,13,30.08,10.0,West,6.9,-,N/A,,Clear,260,2012-12-08 18:35:00
10:55 AM,50.0,6.8,17,30.08,10.0,West,9.2,-,N/A,,Clear,270,2012-12-08 18:55:00
11:15 AM,50.0,10.4,20,30.06,10.0,West,8.1,-,N/A,,Clear,280,2012-12-08 19:15:00
11:35 AM,51.8,3.2,14,30.06,10.0,West,3.5,-,N/A,,Clear,280,2012-12-08 19:35:00
11:55 AM,51.8,-5.8,9,30.05,10.0,NNE,4.6,-,N/A,,Clear,30,2012-12-08 19:55:00
12:15 PM,51.8,10.4,19,30.05,10.0,West,4.6,-,N/A,,Clear,260,2012-12-08 20:15:00
12:35 PM,53.6,12.2,19,30.04,10.0,WSW,3.5,-,N/A,,Clear,250,2012-12-08 20:35:00
12:55 PM,53.6,12.2,19,30.04,10.0,West,9.2,-,N/A,,Clear,260,2012-12-08 20:55:00
1:15 PM,53.6,3.2,13,30.03,10.0,ESE,3.5,-,N/A,,Clear,120,2012-12-08 21:15:00
1:35 PM,51.8,10.4,19,30.03,10.0,West,5.8,-,N/A,,Clear,260,2012-12-08 21:35:00
1:55 PM,51.8,17.6,26,30.03,10.0,West,8.1,-,N/A,,Clear,270,2012-12-08 21:55:00
2:15 PM,51.8,17.6,26,30.03,10.0,SW,3.5,-,N/A,,Clear,230,2012-12-08 22:15:00
2:35 PM,51.8,17.6,26,30.03,10.0,West,8.1,-,N/A,,Clear,270,2012-12-08 22:35:00
2:55 PM,51.8,15.8,24,30.03,10.0,SW,3.5,-,N/A,,Clear,220,2012-12-08 22:55:00
3:15 PM,50.0,3.2,15,30.03,10.0,East,4.6,-,N/A,,Clear,100,2012-12-08 23:15:00
3:35 PM,50.0,5.0,16,30.03,10.0,East,4.6,-,N/A,,Clear,100,2012-12-08 23:35:00
3:55 PM,46.4,5.0,18,30.03,10.0,East,3.5,-,N/A,,Clear,100,2012-12-08 23:55:00
4:15 PM,44.6,6.8,21,30.03,10.0,Calm,Calm,-,N/A,,Clear,0,2012-12-09 00:15:00
4:35 PM,42.8,8.6,25,30.04,10.0,Calm,Calm,-,N/A,,Clear,0,2012-12-09 00:35:00
4:55 PM,39.2,10.4,31,30.04,10.0,Calm,Calm,-,N/A,,Clear,0,2012-12-09 00:55:00
5:35 PM,33.8,10.4,38,30.05,10.0,Calm,Calm,-,N/A,,Clear,0,2012-12-09 01:35:00
6:15 PM,32.0,14.0,48,30.06,10.0,Calm,Calm,-,N/A,,Clear,0,2012-12-09 02:15:00
6:35 PM,32.0,14.0,48,30.06,10.0,Calm,Calm,-,N/A,,Clear,0,2012-12-09 02:35:00
6:55 PM,30.2,14.0,51,30.07,10.0,Calm,Calm,-,N/A,,Clear,0,2012-12-09 02:55:00
7:15 PM,30.2,14.0,51,30.07,10.0,Calm,Calm,-,N/A,,Clear,0,2012-12-09 03:15:00
7:55 PM,28.4,14.0,55,30.08,10.0,Calm,Calm,-,N/A,,Clear,0,2012-12-09 03:55:00
8:35 PM,28.4,12.2,51,30.08,10.0,Calm,Calm,-,N/A,,Clear,0,2012-12-09 04:35:00
8:55 PM,26.6,12.2,55,30.08,10.0,Calm,Calm,-,N/A,,Clear,0,2012-12-09 04:55:00
9:15 PM,26.6,12.2,55,30.09,10.0,Calm,Calm,-,N/A,,Clear,0,2012-12-09 05:15:00
9:35 PM,26.6,12.2,55,30.08,10.0,Calm,Calm,-,N/A,,Clear,0,2012-12-09 05:35:00
9:55 PM,26.6,12.2,55,30.09,10.0,Calm,Calm,-,N/A,,Clear,0,2012-12-09 05:55:00
10:15 PM,26.6,12.2,55,30.09,10.0,Calm,Calm,-,N/A,,Clear,0,2012-12-09 06:15:00
10:35 PM,26.6,12.2,55,30.09,10.0,Calm,Calm,-,N/A,,Clear,0,2012-12-09 06:35:00
11:15 PM,26.6,12.2,55,30.09,10.0,Calm,Calm,-,N/A,,Clear,0,2012-12-09 07:15:00
11:35 PM,26.6,12.2,55,30.09,10.0,Calm,Calm,-,N/A,,Clear,0,2012-12-09 07:35:00
11:55 PM,24.8,12.2,59,30.09,10.0,Calm,Calm,-,N/A,,Clear,0,2012-12-09 07:55:00